Dewpoint
42 42 41 40 41 42 43 42 41 41 42 42 42 42 42 42 42 41 41 41 40 39 39 39 39 39 40 44 46 47 48 48 49 50 50 51 52 53 54 55 55 55 54 54 54 54 54 54 54 53 53 53 53 53 53 53 53 54 54 54 55 56 56 56 55 55 55 55 55 55 55 55 55 55 55 55 55 55 55 55 55 54 54 53 52 51
42 41 41 40 41 42 43 42 41 40 41 41 41 40 40 40 40 40 40 40 39 38 38 38 38 38 38 41 44 46 47 47 48 49 50 50 51 52 53 54 54 54 54 54 54 54 54 54 53 53 53 53 53 53 53 53 53 54 54 54 55 56 56 55 55 55 55 55 55 55 54 54 54 54 54 54 54 55 55 55 55 54 54 53 52 51
42 42 41 40 40 41 42 42 41 40 39 40 40 39 38 38 39 39 40 38 38 38 37 37 38 38 38 40 43 45 46 47 47 48 49 49 50 51 52 53 54 54 54 54 54 54 53 53 53 53 53 53 53 53 53 53 53 53 54 54 54 55 55 54 54 54 54 54 54 54 54 54 54 54 54 54 54 54 54 54 54 54 54 53 52 51
42 42 41 40 39 39 40 41 40 39 39 39 39 38 37 37 38 39 39 38 37 36 35 35 37 38 40 41 42 44 46 47 47 47 48 49 49 50 51 53 54 54 54 54 54 53 53 53 53 53 52 52 52 52 52 52 53 53 53 53 53 53 53 53 53 53 53 53 53 53 53 53 53 53 53 53 53 53 53 53 53 53 53 52 52 51
40 40 40 39 39 39 39 40 40 39 39 39 38 38 37 36 37 38 39 38 37 36 35 35 36 38 40 40 42 43 45 46 47 47 47 48 49 50 51 52 53 54 54 54 53 53 53 53 53 52 52 52 52 52 52 52 52 52 52 52 52 52 52 52 52 52 52 52 52 52 52 53 53 53 53 53 53 53 53 53 53 52 52 52 51 51
40 40 41 39 39 39 38 39 39 39 38 38 38 38 37 37 37 37 38 37 37 37 37 36 37 38 38 39 41 42 44 45 46 46 47 48 49 50 51 51 53 54 54 54 53 53 53 52 52 52 52 52 52 52 51 51 51 51 51 51 51 52 52 52 52 52 52 52 52 52 52 52 52 52 52 52 52 52 52 52 52 52 51 51 51 51
41 41 41 39 38 38 38 38 38 38 37 37 37 37 37 37 37 37 37 37 37 37 37 38 38 37 36 37 39 41 42 43 45 46 46 47 48 49 50 51 52 53 54 53 53 53 52 52 52 52 52 52 51 51 51 51 51 51 51 51 51 51 51 51 51 51 51 51 51 51 51 51 51 51 51 51 51 51 51 51 51 51 51 50 50 49
41 40 39 38 38 38 38 38 38 38 37 37 37 37 37 36 36 37 38 37 37 37 37 37 38 37 35 35 36 38 40 42 43 45 45 46 47 48 50 51 52 53 54 53 53 53 52 52 52 52 51 51 51 51 51 51 51 51 51 51 50 50 50 50 50 50 50 50 50 50 50 50 50 50 50 50 50 50 50 50 50 49 49 48 48 47
41 40 39 39 39 40 40 39 39 40 38 38 38 38 38 38 37 37 38 38 38 37 37 35 36 36 34 34 34 37 39 42 43 44 44 45 46 47 49 51 52 53 53 53 53 52 52 52 52 51 51 51 51 51 50 50 50 50 50 50 50 50 49 49 49 49 49 49 48 48 48 48 48 47 47 47 47 47 47 47 47 47 47 47 47 46
41 41 40 40 40 40 40 39 40 41 40 39 38 39 40 40 39 38 38 39 39 38 36 34 34 35 35 34 34 36 38 41 42 44 44 44 44 46 47 50 52 53 53 53 53 52 52 52 51 51 51 51 50 50 50 49 49 49 49 49 49 49 49 48 48 48 47 47 47 47 47 47 46 46 46 46 45 45 45 45 45 46 46 45 45 45
41 41 41 40 39 39 39 39 39 39 39 38 38 39 40 40 40 40 39 39 39 38 37 35 34 34 35 35 35 35 37 38 41 42 43 42 43 44 46 49 51 52 53 52 52 52 51 51 51 51 50 50 50 49 49 48 48 48 49 48 48 48 48 48 47 47 47 47 47 46 46 46 45 45 45 44 44 44 43 43 43 43 44 44 44 44
40 40 40 40 40 40 39 38 38 38 38 38 38 38 38 38 40 40 40 40 39 38 38 35 34 33 33 33 34 34 35 37 38 40 41 41 41 42 43 47 50 51 52 52 52 51 51 51 50 50 50 49 49 49 48 48 48 48 48 48 48 48 47 47 47 47 47 46 46 46 45 45 44 44 44 43 43 42 42 42 42 42 42 42 42 43
39 39 39 39 39 39 39 38 38 38 38 38 38 39 39 38 39 39 40 39 38 37 36 35 34 33 33 33 33 33 34 36 38 38 39 39 39 38 39 43 46 48 49 50 50 50 50 50 49 49 49 48 48 48 48 48 48 48 48 48 47 47 47 47 47 46 46 46 45 45 44 44 43 43 42 42 42 41 41 40 40 40 40 40 41 41
38 38 39 39 39 39 39 39 39 39 39 39 39 39 39 38 38 38 38 37 36 35 35 34 33 33 33 33 33 33 33 35 37 38 39 38 38 37 37 41 43 44 46 47 47 47 49 48 48 48 48 48 48 47 48 48 48 48 47 47 47 47 47 47 46 46 45 45 44 44 43 43 42 42 41 41 40 39 39 38 38 38 38 38 38 39
38 39 39 39 39 39 39 39 39 39 39 39 38 38 38 38 38 38 38 37 35 34 34 34 33 33 34 33 32 33 33 35 37 38 38 38 38 37 36 39 41 43 43 44 45 46 47 47 46 46 47 47 47 47 47 47 47 47 47 47 47 47 46 46 45 45 44 44 43 43 42 42 41 41 40 39 38 38 38 37 37 37 36 37 37 37
39 39 39 39 39 39 38 39 39 39 39 38 37 37 38 37 37 37 37 36 35 34 34 34 34 35 35 34 33 33 33 34 36 37 38 38 38 37 36 38 40 42 41 42 42 42 43 44 44 45 45 46 47 47 47 47 47 47 47 46 46 46 45 45 44 44 43 43 43 42 42 41 40 40 39 38 38 37 36 36 36 35 35 35 36 36
39 39 39 39 38 38 38 38 39 38 38 37 36 36 37 36 36 36 36 35 35 34 34 34 34 35 36 36 34 33 32 33 35 36 37 38 37 37 35 37 38 40 39 40 40 40 41 42 43 43 45 46 47 47 47 47 47 46 46 46 45 45 45 44 44 44 43 43 42 42 42 41 40 39 38 37 37 36 35 35 35 35 35 35 35 36
39 39 39 39 38 38 38 38 38 37 37 36 36 35 35 34 35 35 35 35 35 35 34 35 34 34 35 37 34 32 31 32 34 36 37 37 37 36 35 36 37 38 38 38 38 38 39 40 41 43 45 46 47 47 46 46 46 46 46 45 45 45 44 44 44 44 43 43 42 42 41 40 39 38 38 37 36 35 35 35 35 35 35 35 36 36
38 38 39 39 38 38 38 38 37 37 37 36 36 35 34 33 33 33 34 34 35 35 35 35 34 34 34 35 34 32 31 31 33 35 37 37 36 36 35 36 37 38 38 38 38 37 37 37 40 43 46 46 46 46 46 46 46 45 45 45 45 45 44 44 44 43 43 43 42 42 41 40 40 39 38 37 37 36 35 35 35 35 35 36 36 36
38 38 38 38 38 38 38 38 39 39 38 38 37 36 35 34 33 33 33 34 34 34 35 35 35 35 34 34 33 32 30 31 33 35 36 36 35 34 33 35 37 38 37 37 36 35 35 36 38 40 43 45 46 46 46 46 45 45 45 45 45 44 44 44 44 43 43 43 42 42 41 41 40 39 38 38 38 37 36 36 36 36 36 36 36 36
38 38 38 38 39 39 38 38 39 39 40 38 37 36 35 34 34 33 33 33 33 34 34 34 35 35 33 33 32 31 30 31 33 34 35 35 34 33 33 33 34 36 38 37 36 35 35 35 36 38 41 43 45 46 46 45 45 45 45 45 45 45 45 44 44 44 43 43 42 42 42 41 41 40 39 39 38 38 37 37 37 37 37 37 37 37
39 38 37 38 39 40 39 38 39 40 40 37 37 36 36 35 34 34 33 33 34 34 35 35 34 33 31 31 30 30 29 30 32 33 34 34 34 33 31 32 33 35 37 37 36 35 35 35 36 37 41 42 44 45 45 45 45 45 46 45 45 45 45 45 44 44 44 43 43 42 42 42 41 41 40 39 39 38 38 38 38 37 37 37 37 37
38 38 37 37 38 38 38 37 38 38 38 37 37 37 36 35 35 35 35 35 34 34 34 33 31 30 29 29 29 29 29 29 30 32 34 35 34 33 30 31 32 34 35 35 35 34 35 35 35 37 39 41 42 43 44 44 45 45 46 46 46 46 46 46 45 45 44 44 43 43 42 42 42 41 41 40 39 39 38 38 38 38 37 37 37 37
38 38 38 37 36 36 36 36 35 35 36 35 35 34 34 34 35 34 34 34 34 33 32 31 31 31 31 31 31 30 29 29 30 32 34 34 34 32 29 30 32 34 35 35 34 33 34 34 35 36 37 39 41 42 42 43 44 44 45 45 45 46 46 46 46 45 45 45 44 44 43 42 42 42 41 41 40 39 39 39 38 38 38 37 37 37
37 37 37 36 37 37 36 36 36 35 34 34 34 34 35 35 35 34 33 33 33 33 33 33 33 32 31 32 31 30 29 28 29 31 33 33 33 31 27 28 30 32 33 33 32 31 32 33 34 34 35 36 38 39 40 41 42 42 43 44 44 44 45 45 45 45 45 45 45 44 44 43 43 42 42 41 41 40 40 39 39 38 38 38 37 37
38 38 38 38 39 40 40 40 39 39 37 36 35 35 35 35 35 34 34 33 33 33 33 33 32 31 29 29 29 29 29 28 29 30 32 33 33 31 27 26 27 29 30 30 30 30 31 33 33 33 33 33 34 36 38 38 40 41 41 42 42 43 43 43 44 44 44 45 45 45 45 44 44 43 42 42 41 41 40 40 39 39 38 38 38 37
40 40 40 41 41 41 41 41 41 41 40 39 38 36 35 34 34 34 33 32 32 33 33 33 31 30 29 29 29 29 27 28 29 29 31 32 33 31 28 25 25 26 27 28 29 30 32 32 32 32 31 30 30 32 34 36 37 38 39 40 41 41 42 42 42 42 43 43 44 44 45 45 45 44 44 43 42 42 41 40 40 39 39 38 37 36
41 41 41 41 40 40 40 40 40 40 40 40 39 38 36 34 33 33 32 31 31 32 33 32 31 30 30 30 29 28 26 27 28 28 29 31 32 31 28 24 23 24 25 26 28 29 30 30 29 28 28 28 28 29 30 32 34 35 36 37 38 39 39 40 41 41 42 42 42 43 43 44 44 44 44 44 43 42 42 41 40 40 39 38 35 33
40 40 40 40 40 40 39 39 39 39 39 39 39 39 37 34 33 32 31 30 30 31 32 32 31 30 30 29 28 27 27 27 27 27 29 31 31 29 24 22 21 22 24 25 26 27 26 25 24 23 23 27 27 26 25 28 29 31 32 33 35 36 37 38 38 39 40 40 41 41 42 42 43 43 44 44 44 43 42 42 41 40 39 35 32 30
35 35 35 35 35 36 36 36 37 38 38 38 38 38 36 33 31 30 29 30 30 31 32 31 30 30 29 29 29 29 29 27 26 26 28 30 30 28 22 21 20 20 21 25 26 26 26 26 24 22 22 24 24 23 21 24 25 26 26 29 32 34 36 36 36 37 37 38 38 39 39 40 41 41 42 43 43 43 43 42 42 40 38 33 30 29
29 29 28 27 28 29 31 32 33 34 36 36 36 35 33 32 30 29 29 29 29 30 31 31 30 30 30 30 29 29 29 26 26 26 25 29 29 26 20 21 20 18 18 23 25 26 27 28 27 25 22 22 21 21 22 23 23 23 23 25 28 31 34 34 33 34 34 34 35 35 36 37 37 38 39 40 41 42 42 42 42 40 37 33 30 29
27 27 25 24 24 25 27 28 28 29 29 30 31 32 32 31 30 29 28 28 28 29 29 29 30 30 31 31 29 29 29 25 26 27 25 27 25 22 17 20 19 18 17 20 23 24 24 26 26 24 20 20 20 20 22 24 24 22 22 24 24 27 32 32 31 31 32 32 32 33 33 33 33 34 35 36 38 39 40 41 41 40 37 34 32 30
26 25 24 24 24 24 25 24 25 25 26 26 26 27 28 29 29 29 26 25 26 27 27 28 28 28 28 28 28 28 28 24 26 29 28 25 22 19 16 17 18 17 17 18 19 20 20 20 20 20 19 19 19 20 20 23 24 22 21 22 22 23 26 28 28 28 29 30 31 31 31 31 31 32 32 33 34 36 37 38 39 39 38 35 33 32
27 26 25 24 24 24 23 23 24 24 25 25 25 25 25 25 26 26 25 24 24 24 24 25 25 25 24 24 24 25 24 23 26 30 30 24 21 19 15 16 16 16 16 17 16 16 16 15 15 16 19 20 20 20 20 20 21 21 18 19 20 20 22 23 24 25 26 27 27 27 28 28 29 30 31 31 32 33 34 35 37 38 38 36 35 34
27 26 25 24 23 23 23 23 23 23 24 24 24 24 24 23 22 22 23 23 22 22 20 22 23 24 24 23 24 23 22 21 24 29 31 24 20 19 16 16 15 16 17 16 15 15 15 15 15 16 17 20 21 21 20 19 18 18 17 18 19 19 18 18 19 21 22 23 23 23 23 24 26 28 29 31 31 32 32 33 34 35 37 37 37 35
28 26 24 23 23 24 23 23 24 24 24 23 21 20 21 20 20 20 20 20 21 22 21 21 21 21 22 23 23 23 22 20 23 26 29 23 20 20 20 18 16 16 18 16 15 14 15 15 16 17 18 19 20 21 21 20 19 18 19 19 19 18 17 17 17 17 18 20 22 22 22 23 24 26 28 30 32 32 32 32 33 34 35 36 37 36
28 27 24 22 21 23 24 22 22 23 23 22 20 19 19 17 17 17 15 15 17 20 22 22 22 22 22 20 20 21 20 19 20 21 25 21 20 20 21 19 18 18 17 17 16 14 15 16 17 17 16 16 17 18 20 20 20 20 19 20 19 19 17 17 17 16 17 20 22 23 23 24 24 25 27 30 31 31 32 32 33 33 34 35 35 36
28 27 25 22 21 21 22 22 23 24 23 22 21 20 18 15 15 15 14 13 13 15 16 17 19 20 23 22 20 18 15 15 15 17 20 17 18 19 20 18 18 19 18 18 17 16 16 17 17 17 16 15 15 18 19 18 18 18 19 19 19 18 17 16 16 17 18 20 21 24 25 25 24 24 24 25 26 27 28 29 31 33 34 34 34 35
27 27 25 24 23 24 24 24 24 24 24 23 21 19 17 16 15 15 14 14 14 14 13 15 15 15 15 16 19 20 18 15 13 12 13 13 15 18 20 18 17 16 16 15 15 15 16 16 15 15 16 15 15 15 15 14 13 14 16 19 19 19 18 18 18 19 20 19 20 23 24 21 20 21 21 21 22 23 24 25 28 30 31 30 31 33
28 28 27 27 27 26 25 26 25 24 24 24 23 21 20 19 18 17 16 17 16 15 13 13 14 15 15 18 19 19 18 16 15 13 10 11 12 14 19 18 17 15 14 11 11 13 15 15 15 15 17 15 15 15 15 12 13 15 20 19 19 20 21 21 19 17 16 15 16 18 20 18 19 20 21 21 21 21 22 23 24 27 29 28 27 27
29 29 28 29 29 28 27 27 25 24 23 23 22 20 20 20 19 19 19 19 19 17 16 17 17 17 15 12 11 11 13 14 15 13 8 8 9 12 16 17 16 15 13 11 11 12 15 14 14 14 12 12 14 16 17 15 17 20 22 20 19 19 21 22 21 18 16 15 15 16 20 21 22 23 22 23 22 21 21 21 21 23 27 26 25 25
31 30 29 28 26 24 23 22 23 24 23 23 22 21 20 20 20 19 19 19 18 16 15 15 17 19 19 17 14 11 9 11 13 14 10 8 9 11 14 15 15 15 13 12 11 12 15 16 16 15 11 11 12 13 13 14 16 19 20 19 18 19 21 21 17 13 14 15 14 15 21 21 20 20 20 20 19 18 21 21 23 25 28 25 24 24
32 31 29 26 24 24 25 25 25 24 24 22 21 20 19 19 20 21 22 19 17 16 15 15 16 18 19 18 17 15 12 8 9 11 14 11 11 12 15 14 13 14 15 14 13 11 11 15 16 14 11 10 11 13 14 17 17 17 17 18 18 18 18 19 15 12 12 16 16 15 16 18 18 18 19 20 20 20 20 23 26 29 31 28 25 24
32 30 27 24 24 25 27 25 25 24 24 24 23 22 19 19 20 21 20 17 16 15 13 12 13 15 15 15 15 15 15 12 9 9 14 17 15 13 14 14 11 11 13 15 14 12 10 13 13 12 10 10 11 13 14 15 15 15 14 16 17 17 17 18 17 15 15 17 18 17 15 16 16 16 17 18 19 19 19 19 20 22 27 26 25 24
30 28 25 25 25 25 25 25 25 25 24 24 23 21 20 20 21 22 20 18 17 15 12 15 16 17 17 16 15 15 15 14 13 12 11 17 21 21 16 15 14 13 13 14 14 14 14 14 12 10 9 11 11 12 14 15 15 16 19 19 18 18 16 18 18 17 17 17 17 16 14 14 15 15 16 16 17 17 17 18 19 20 22 24 24 24
30 28 26 25 25 26 27 26 25 25 24 25 24 22 20 20 20 21 22 20 17 15 14 17 20 21 21 21 19 17 17 17 17 17 14 14 15 17 19 18 17 16 15 15 15 15 15 15 13 10 9 11 11 11 11 13 14 15 16 18 17 15 15 16 16 15 15 16 16 15 14 12 13 15 17 17 17 17 17 18 19 20 20 21 22 23
30 28 27 25 25 26 27 26 26 25 25 25 24 22 20 19 20 20 20 19 18 18 19 21 22 22 23 20 19 18 19 20 18 17 16 15 13 13 17 19 19 19 18 18 17 16 17 17 15 14 14 15 14 12 11 11 12 13 14 14 14 14 14 14 14 14 14 15 15 14 11 11 13 15 17 16 16 16 17 18 19 20 20 21 22 23
31 29 28 27 26 26 26 26 26 26 26 25 24 22 20 20 21 20 19 18 19 21 23 22 22 23 23 20 20 21 21 22 20 18 19 16 13 12 15 17 19 19 19 19 19 19 18 18 18 18 18 17 15 14 13 11 11 11 11 12 13 13 13 15 15 14 14 14 13 12 11 14 15 15 15 15 16 16 17 18 18 19 20 21 22 23
32 31 29 28 28 27 26 26 26 26 26 25 24 22 21 24 25 24 20 19 20 21 23 23 23 23 23 21 21 22 24 24 22 20 20 15 12 12 15 16 17 16 15 15 15 16 16 17 18 19 20 19 18 16 15 14 12 11 10 11 11 12 12 14 15 15 15 13 10 8 8 12 15 15 16 16 16 16 16 17 18 18 19 20 21 23
33 32 30 29 29 28 27 27 26 26 26 26 25 24 23 24 24 24 21 21 21 22 23 24 24 24 24 22 22 22 23 23 22 21 21 18 15 13 15 17 15 14 13 13 14 14 12 14 17 19 21 22 21 19 16 15 12 11 9 10 10 11 12 13 14 15 15 15 12 9 7 10 12 14 15 16 16 16 15 16 18 19 19 19 20 23
33 33 31 30 30 29 28 28 27 27 27 27 26 26 25 24 24 24 23 23 23 24 24 25 25 25 25 24 24 24 24 23 22 22 23 21 17 15 15 17 16 15 15 15 16 16 16 15 15 17 20 24 25 23 19 16 13 11 11 10 9 9 10 11 12 14 15 15 14 11 10 11 12 14 15 15 16 15 15 16 17 18 18 18 19 21